www.pogodaiklimat.ru

Погода и климат >> Архив погоды >> Германия >> Leuchtturm Kiel


ПОГОДА в Leuchtturm Kiel

  • Прогноз погоды в Leuchtturm Kiel
  • Монитор погоды в Leuchtturm Kiel
  • Климат города

АРХИВ ПОГОДЫ в Leuchtturm Kiel

Время (UTC), дата Ветер
(напр.,м/с)
 
Видим.   Явления Облачность Т
(С)
Тd
(С)
f
(%)
Тe
(С)
Тes
(С)
Комфортность P
(гПа)
Po
(гПа)
Тmin
(С)
Tmax
(С)
R
(мм)
S
(см)
01 21.03 З 11
{14}
н/о н/о +6.9 +4.9 87 +1 +1 999.2 996.0
02 21.03 З 11
{13}
н/о н/о +6.7 +4.8 88 +1 +1 999.8 996.6
03 21.03 ЮЗ 8
{16}
н/о н/о +6.5 +4.7 88 +1 +1 999.9 996.8
04 21.03 ЮЗ 8 н/о н/о +6.2 +4.6 89 +1 +1 1000.4 997.2
05 21.03 ЮЗ 8 н/о н/о +5.8 +4.1 89 0 0 1000.9 997.7
06 21.03 ЮЗ 8
{16}
н/о н/о +5.5 +4.0 90 -0 -0 1001.2 998.1 +5.5 +10.7
07 21.03 ЮЗ 8 н/о н/о +5.8 +4.5 91 0 0 1001.4 998.3
08 21.03 ЮЗ 9 н/о н/о +6.4 +4.6 88 +1 +1 1001.6 998.5
09 21.03 ЮЗ 10
{13}
н/о н/о +8.0 +4.5 79 +3 +3 1001.8 998.7
10 21.03 ЮЗ 10
{15}
н/о н/о +8.1 +4.1 76 +3 +3 1002.1 998.9
11 21.03 ЮЗ 14
{20}
н/о н/о +8.5 +3.0 68 +3 +3 1001.8 998.6
12 21.03 ЮЗ 12
{20}
н/о н/о +7.4 +3.6 77 +2 +2 1002.5 999.3
13 21.03 З 17
{20}
н/о н/о +7.7 +0.7 61 +1 +1 1002.6 999.4
14 21.03 З 16
{20}
н/о н/о +7.1 +1.0 65 +1 +1 1003.5 1000.3
15 21.03 З 17
{21}
н/о н/о +6.8 -0.5 60 0 0 1004.2 1001.0
17 21.03 З 14
{20}
н/о н/о +6.2 -0.8 61 -0 -0 1006.3 1003.1
16 21.03 З 16
{19}
н/о н/о +6.3 -0.2 63 -1 -1 1005.1 1001.9
18 21.03 З 13
{21}
н/о н/о +6.0 -0.9 61 -0 -0 1007.2 1004.0 +5.5 +8.9
19 21.03 ЮЗ 10
{17}
н/о н/о +5.4 +0.4 70 -1 -1 1008.4 1005.2
20 21.03 ЮЗ 11
{14}
н/о н/о +5.4 +0.9 73 -1 -1 1008.9 1005.7
21 21.03 ЮЗ 11
{18}
н/о н/о +5.1 +0.7 73 -1 -1 1009.4 1006.2
23 21.03 ЮЗ 10
{13}
н/о н/о +4.5 +0.9 77 -2 -2 1010.5 1007.3
22 21.03 ЮЗ 11
{13}
н/о н/о +5.1 +0.7 73 -1 -1 1010.1 1006.9
00 22.03 ЮЗ 11
{18}
н/о н/о +4.5 +0.5 75 -2 -2 1010.9 1007.7
01 22.03 ЮЗ 11
{14}
н/о н/о +4.7 +0.1 72 -2 -2 1011.3 1008.0
02 22.03 ЮЗ 10
{14}
н/о н/о +4.5 0.0 73 -2 -2 1011.6 1008.4
03 22.03 ЮЗ 9
{14}
н/о н/о +4.2 -0.1 74 -2 -2 1012.1 1008.8
05 22.03 Ю 8 н/о н/о +3.5 0.0 78 -3 -3 1012.7 1009.5
04 22.03 ЮЗ 9 н/о н/о +3.9 -0.1 75 -3 -3 1012.3 1009.1
06 22.03 ЮЗ 8
{14}
н/о н/о +3.2 -0.4 77 -3 -3 1013.5 1010.2 +3.2 +6.2
07 22.03 ЮЗ 8 н/о н/о +3.8 +0.3 78 -2 -2 1014.2 1010.9
08 22.03 ЮЗ 8 н/о н/о +4.8 +0.5 74 -1 -1 1014.8 1011.6
09 22.03 ЮЗ 7 н/о н/о +5.8 +1.1 72 +1 +1 1015.4 1012.2
11 22.03 ЮЗ 9 н/о н/о +9.0 -1.5 48 +5 +5 1016.2 1013.0
10 22.03 ЮЗ 8 н/о н/о +7.4 +1.1 64 +3 +3 1015.8 1012.6
12 22.03 ЮЗ 6 н/о н/о +8.7 -0.2 54 +5 +5 1016.8 1013.6
13 22.03 ЮЗ 6 н/о н/о +9.4 -2.0 45 +6 +6 1017.0 1013.8
14 22.03 ЮЗ 5 н/о н/о +10.0 -4.3 36 +8 +8 1017.1 1014.0
15 22.03 ЮЗ 3 н/о н/о +10.1 -3.1 39 +9 +9 1017.1 1014.0
17 22.03 В 2 н/о н/о +8.4 -1.8 49 +7 +7 1017.7 1014.5
16 22.03 ЮЗ 1 н/о н/о +10.7 -3.0 38 +11 +11 1017.2 1014.0
18 22.03 В 4 н/о н/о +8.7 -2.8 44 +6 +6 1018.2 1015.0 +3.2 +11.9
19 22.03 В 6 н/о н/о +7.7 -0.3 57 +4 +4 1018.9 1015.7
20 22.03 ЮВ 5 н/о н/о +7.8 +1.0 62 +4 +4 1019.3 1016.1
21 22.03 ЮВ 4 н/о н/о +8.2 -2.2 48 +6 +6 1019.8 1016.6
22 22.03 В 5 н/о н/о +7.2 -1.8 53 +4 +4 1020.0 1016.8
23 22.03 ЮВ 6 н/о н/о +7.2 -2.2 51 +3 +3 1020.4 1017.1
00 23.03 ЮВ 7 н/о н/о +6.4 -1.0 59 +2 +2 1020.4 1017.2
01 23.03 В 7 н/о н/о +5.9 +0.5 68 +1 +1 1020.5 1017.2
02 23.03 В 6 н/о н/о +5.2 +1.5 77 0 0 1020.3 1017.1
03 23.03 В 5 н/о н/о +5.5 +0.7 71 +1 +1 1020.4 1017.1
04 23.03 В 6 н/о н/о +4.6 +2.7 87 -1 -1 1020.8 1017.6
05 23.03 В 7 н/о н/о +4.9 +2.2 83 -1 -1 1020.9 1017.7
06 23.03 В 7 н/о н/о +5.0 +2.4 83 -1 -1 1021.4 1018.2 +4.6 +9.6
07 23.03 СВ 7 н/о н/о +5.0 +2.1 81 -0 -0 1021.8 1018.6
08 23.03 СВ 9 н/о н/о +5.0 +1.6 79 -1 -1 1022.3 1019.0
09 23.03 СВ 8 н/о н/о +4.9 +1.8 80 -1 -1 1022.7 1019.4
10 23.03 СВ 9 н/о н/о +5.2 +2.0 80 -1 -1 1022.6 1019.4
11 23.03 СВ 10 н/о н/о +5.6 +2.3 79 -1 -1 1022.9 1019.7
12 23.03 В 8 н/о н/о +5.8 +2.0 77 0 0 1023.2 1019.9
13 23.03 В 7 н/о н/о +6.3 +1.2 70 +2 +2 1023.1 1019.9
14 23.03 СВ 7 н/о н/о +6.9 -0.5 59 +2 +2 1023.0 1019.8
15 23.03 В 6 н/о н/о +7.1 -1.0 56 +3 +3 1023.0 1019.8
16 23.03 В 6 н/о н/о +6.6 +1.2 68 +2 +2 1023.4 1020.1
17 23.03 СВ 4 н/о н/о +6.8 +0.8 66 +3 +3 1024.0 1020.7
18 23.03 В 6 н/о н/о +6.6 +0.6 65 +2 +2 1024.2 1020.9 +4.8 +7.6
20 23.03 СВ 3 н/о н/о +5.9 +1.2 72 +3 +3 1026.2 1023.0
19 23.03 СВ 5 н/о н/о +6.5 +1.1 68 +3 +3 1025.4 1022.2
21 23.03 С 2 н/о н/о +6.2 +0.7 68 +4 +4 1026.9 1023.6
22 23.03 С 3 н/о н/о +5.7 +2.5 80 +2 +2 1027.2 1023.9
23 23.03 СВ 3 н/о н/о +5.3 +2.5 82 +2 +2 1027.4 1024.2
00 24.03 СВ 4 н/о н/о +4.8 +3.1 89 +1 +1 1027.7 1024.4
01 24.03 С 4 н/о н/о +4.5 +2.6 87 0 0 1028.2 1025.0
03 24.03 СЗ 2 н/о н/о +4.0 +1.8 86 +1 +1 1029.1 1025.8
04 24.03 С 3 н/о н/о +4.4 +1.1 79 +1 +1 1029.7 1026.4
05 24.03 С 4 н/о н/о +4.2 +1.4 82 -0 -0 1030.2 1026.9
06 24.03 С 3 н/о н/о +4.2 +1.5 83 +1 +1 1030.8 1027.5 +3.8 +7.1
07 24.03 С 1 н/о н/о +5.3 +2.0 79 +4 +4 1031.9 1028.6
08 24.03 С 1 н/о н/о +6.9 +2.5 74 +6 +6 1032.1 1028.9
09 24.03 Ю 1 н/о н/о +5.9 +1.1 71 +5 +5 1032.6 1029.3
10 24.03 СВ 1 н/о н/о +5.8 +1.1 72 +5 +5 1032.8 1029.6
11 24.03 СВ 2 н/о н/о +5.9 +2.3 78 +4 +4 1032.9 1029.6
12 24.03 СВ 2 н/о н/о +5.7 +2.6 80 +3 +3 1033.2 1029.9
13 24.03 В 2 н/о н/о +5.7 +0.8 71 +3 +3 1033.1 1029.8
14 24.03 штиль 0 н/о н/о +7.9 -5.3 39 +8 +8 1033.1 1029.8
15 24.03 С 3 н/о н/о +7.5 -4.6 42 +5 +5 1032.8 1029.6
16 24.03 СВ 1 н/о н/о +7.8 -4.8 40 +8 +8 1032.6 1029.3
17 24.03 СВ 2 н/о н/о +7.4 -1.5 53 +6 +6 1032.5 1029.2
18 24.03 Ю 1 н/о н/о +6.8 +0.1 62 +6 +6 1032.7 1029.5 +4.0 +8.3
20 24.03 СЗ 5 н/о н/о +7.2 -2.9 49 +4 +4 1033.2 1029.9
19 24.03 ЮЗ 2 н/о н/о +7.0 -0.8 58 +5 +5 1032.9 1029.7
21 24.03 З 7 н/о н/о +6.2 -1.9 56 +2 +2 1033.2 1029.9
22 24.03 З 5 н/о н/о +5.3 +0.8 73 +1 +1 1033.1 1029.9
23 24.03 З 5 н/о н/о +4.9 +1.5 79 0 0 1033.1 1029.8
00 25.03 З 5 н/о н/о +4.5 +1.7 82 -0 -0 1033.2 1029.9
02 25.03 З 7 н/о н/о +4.1 +2.3 88 -2 -2 1032.6 1029.3
01 25.03 З 5 н/о н/о +4.3 +1.9 84 -1 -1 1033.2 1029.9
03 25.03 З 7 н/о н/о +4.1 +1.7 84 -2 -2 1032.1 1028.8
04 25.03 З 7 н/о н/о +4.1 +2.0 86 -2 -2 1031.2 1028.0
05 25.03 З 7 н/о н/о +4.1 +1.4 83 -2 -2 1031.0 1027.7
06 25.03 З 8 н/о н/о +3.9 +1.6 85 -2 -2 1030.9 1027.7 +3.9 +7.6
08 25.03 З 8 н/о н/о +4.7 +2.8 87 -1 -1 1030.7 1027.4
07 25.03 З 8 н/о н/о +4.1 +2.0 86 -2 -2 1030.8 1027.5
09 25.03 СЗ 6 н/о н/о +5.9 +3.5 85 +1 +1 1030.8 1027.6
10 25.03 СЗ 9 н/о н/о +7.2 +4.5 83 +2 +2 1030.7 1027.4
11 25.03 СЗ 7 н/о н/о +7.5 +5.0 84 +3 +3 1030.4 1027.2
12 25.03 СЗ 6 н/о н/о +8.4 +5.2 80 +4 +4 1029.9 1026.7
14 25.03 З 6 н/о н/о +9.0 +4.3 72 +5 +5 1028.4 1025.1
13 25.03 СЗ 6 н/о н/о +8.9 +5.1 77 +5 +5 1029.2 1025.9
15 25.03 СЗ 4 н/о н/о +9.2 +5.0 75 +6 +6 1028.0 1024.7
16 25.03 З 6 н/о н/о +9.3 +4.3 71 +6 +6 1026.9 1023.7
17 25.03 З 7 н/о н/о +9.2 +4.8 74 +5 +5 1026.8 1023.6
18 25.03 СЗ 7 н/о н/о +8.4 +5.3 81 +4 +4 1026.9 1023.7 +3.9 +9.7
19 25.03 СЗ 5 н/о н/о +7.0 +5.1 88 +3 +3 1027.2 1023.9
20 25.03 З 6 н/о н/о +6.7 +5.2 90 +2 +2 1026.9 1023.6
21 25.03 З 6 н/о н/о +6.2 +5.1 93 +1 +1 1026.7 1023.5
22 25.03 СЗ 5 н/о н/о +6.3 +5.3 93 +2 +2 1026.6 1023.4
23 25.03 СЗ 5 н/о н/о +6.3 +5.0 91 +2 +2 1026.7 1023.5
00 26.03 С 7 н/о н/о +6.6 +5.2 91 +2 +2 1026.6 1023.4
01 26.03 С 6 н/о н/о +6.2 +4.9 91 +1 +1 1026.5 1023.3
02 26.03 С 3 н/о н/о +5.4 +4.7 95 +2 +2 1026.5 1023.3
03 26.03 С 3 н/о н/о +5.2 +4.4 95 +2 +2 1026.2 1022.9
04 26.03 СЗ 2 н/о н/о +5.1 +4.3 95 +2 +2 1026.0 1022.7
05 26.03 СЗ 3 н/о н/о +4.9 +4.3 96 +1 +1 1026.2 1022.9
06 26.03 СЗ 2 н/о н/о +4.8 +4.2 96 +2 +2 1026.6 1023.4 +4.7 +9.2
07 26.03 С 2 н/о н/о +5.0 +4.5 97 +2 +2 1026.9 1023.6
08 26.03 С 1 н/о н/о +5.5 +4.8 95 +4 +4 1027.3 1024.1
09 26.03 ЮЗ 1 н/о н/о +5.8 +4.6 92 +5 +5 1027.7 1024.5
10 26.03 Ю 2 н/о н/о +5.6 +4.1 90 +3 +3 1027.9 1024.6
11 26.03 СЗ 1 н/о н/о +7.9 +5.1 82 +7 +7 1027.8 1024.6
12 26.03 С 2 н/о н/о +7.6 +5.0 84 +6 +6 1027.8 1024.6
13 26.03 В 3 н/о н/о +6.0 +4.2 88 +3 +3 1027.5 1024.3
14 26.03 В 3 н/о н/о +5.8 +4.3 90 +2 +2 1027.3 1024.1
15 26.03 В 4 н/о н/о +5.7 +4.4 91 +2 +2 1027.1 1023.8
16 26.03 В 5 н/о н/о +5.7 +4.7 93 +1 +1 1026.7 1023.4
17 26.03 ЮВ 5 н/о н/о +5.6 +4.8 95 +1 +1 1026.8 1023.5
18 26.03 ЮВ 5 н/о н/о +5.7 +4.7 93 +1 +1 1026.7 1023.5 +4.7 +7.9
19 26.03 СЗ 1 н/о н/о +5.8 +4.4 91 +5 +5 1026.7 1023.5
20 26.03 С 2 н/о н/о +6.8 +4.8 87 +5 +5 1027.1 1023.9
21 26.03 С 5 н/о н/о +5.6 +4.9 95 +1 +1 1027.2 1024.0
23 26.03 С 3 н/о н/о +4.6 +4.6 100 +1 +1 1027.5 1024.3
22 26.03 С 4 н/о н/о +5.3 +5.0 98 +1 +1 1027.5 1024.2
00 27.03 З 2 н/о н/о +4.1 +3.8 98 +1 +1 1027.5 1024.2
01 27.03 ЮЗ 2 н/о н/о +3.9 +3.7 99 +1 +1 1027.0 1023.7
02 27.03 ЮЗ 2 н/о н/о +3.1 +3.0 99 -0 -0 1026.9 1023.6
03 27.03 ЮЗ 3 н/о н/о +2.7 +2.6 99 -2 -2 1026.5 1023.2
05 27.03 ЮЗ 1 н/о н/о +1.7 +1.6 99 -0 -0 1026.9 1023.6
04 27.03 З 2 н/о н/о +1.8 +1.8 100 -2 -2 1026.6 1023.3
06 27.03 ЮЗ 2 н/о н/о +1.6 +1.5 99 -2 -2 1026.4 1023.1 +1.4 +6.8
07 27.03 ЮЗ 4 н/о н/о +1.8 +1.7 99 -4 -4 1026.7 1023.4
08 27.03 З 3 н/о н/о +3.5 +3.5 100 -1 -1 1026.5 1023.3
09 27.03 З 3 н/о н/о +3.3 +3.1 99 -1 -1 1026.8 1023.5
11 27.03 З 5 н/о н/о +7.4 +4.7 83 +3 +3 1026.5 1023.3
10 27.03 З 6 н/о н/о +6.1 +5.5 96 +1 +1 1026.5 1023.3
12 27.03 З 5 н/о н/о +9.2 +5.9 80 +6 +6 1025.9 1022.7
13 27.03 З 5 н/о н/о +10.3 +5.1 70 +7 +7 1025.0 1021.8
14 27.03 З 3 н/о н/о +10.6 +4.6 66 +9 +9 1024.4 1021.3
15 27.03 З 3 н/о н/о +11.5 +4.5 62 +10 +10 1023.8 1020.6
17 27.03 З 5 н/о н/о +12.8 +5.0 59 +11 +11 1023.0 1019.9
16 27.03 З 5 н/о н/о +12.0 +4.8 61 +10 +10 1023.4 1020.2
18 27.03 З 6 н/о н/о +12.2 +4.7 60 +10 +10 1022.9 1019.8 +1.3 +13.0
19 27.03 З 5 н/о н/о +11.5 +5.5 67 +9 +9 1022.9 1019.7
20 27.03 З 4 н/о н/о +10.4 +4.5 67 +8 +8 1023.0 1019.8
21 27.03 З 4 н/о н/о +10.0 +4.6 69 +7 +7 1022.9 1019.7
22 27.03 З 4 н/о н/о +9.3 +4.7 73 +7 +7 1022.7 1019.5
23 27.03 З 4 н/о н/о +8.5 +4.4 75 +5 +5 1022.5 1019.3
00 28.03 СЗ 4 н/о н/о +7.3 +4.4 82 +4 +4 1022.4 1019.2
01 28.03 З 3 н/о н/о +6.7 +4.4 85 +4 +4 1022.1 1018.8

 

Местоположение метеостанции Leuchtturm Kiel (Германия): широта 54.50 долгота 10.28 высота над уровнем моря 21 м.

В архиве по умолчанию представлена погода в Leuchtturm Kiel за последнюю неделю. Архивные данные за месяц целиком и за предыдущие месяцы, начиная с января 2011 года, Вы можете получить, выбрав интересующий диапазон дат из раскрывающегося списка и нажав кнопку "Ввод!".

Внимание! Время в таблицах - всемирное. Для получения местного времени необходимо прибавить поправку, которая в Leuchtturm Kiel равна 1 ч.

Смотрите также архив погоды в соседних городах и на ближайших метеорологических станциях:

Погода в Kiel-Holtenau (Германия) (16 км)
Погода в Olpenitz (Германия) (25 км)
Погода в Doernick (Германия) (37 км)
Погода в Kegnaes (Дания) (43 км)
Погода в Schleswig (Германия) (47 км)
Погода в Schleswig Airport (Германия) (49 км)
Погода в Westermarkelsdorf (Германия) (51 км)
Погода в Hohn (Германия) (53 км)
Погода в Langoe (Дания) (58 км)
Погода в Taasinge (Дания) (61 км)

Пояснения к столбцам:

Ветер - указаны скорость ветра в м/с - средняя за 10 мин, порывы в срок и между сроками (в фигурных скобках) и направление, откуда дует ветер: С - северный, СВ - северо-восточный, В - восточный, ЮВ - юго-восточный, Ю - южный, ЮЗ - юго-западный, З - западный, СЗ - северо-западный.
Видимость - горизонтальная дальность видимости в метрах или километрах. При видимости от 1 до 10 км при отсутствии осадков обычно наблюдается дымка, при ухудшении видимости до 1 км и менее - туман. В сухую погоду видимость может ухудшаться дымом, пылью или мглою.
Явления - указаны атмосферные явления, наблюдавшиеся в срок или в последний час перед сроком; фигурными скобками обозначены явления, наблюдавшиеся между сроками (за 1-3 часа до срока); квадратными скобками обозначены град или гололедные отложения с указанием их диаметра в мм.
Облачность - указаны через наклонную черту общая и нижняя облачность в баллах и высота нижней границы облаков в метрах; квадратными скобками обозначены формы облаков: Ci - перистые, Cs - перисто-слоистые, Cc - перисто-кучевые, Ac - высококучевые, As - высокослоистые, Sc - слоисто-кучевые, Ns - слоисто-дождевые, Cu - кучевые, Cb - кучево-дождевые. Подробнее классификацию облаков см. в Атласе облаков (PDF).
T - Температура воздуха - температура, измеренная на высоте 2 м над землей.
Td - Температура точки росы - температура, при понижении до которой содержащийся в воздухе водяной пар достигнет насыщения.
f - Относительная влажность воздуха - влажноcть воздуха, измеренная на высоте 2 м над землей.
Te - Эффективная температура - температура, которую ощущает одетый по сезону человек в тени. Характеристика душности погоды. При расчете учитывается влияние влажности воздуха и скорости ветра на теплоощущения человека.
Tes - Эффективная температура на солнце - температура, которую ощущает человек, с поправкой на солнечный нагрев. Характеристика знойности погоды. Зависит от высоты солнца над горизонтом, облачности и скорости ветра. Ночью, в пасмурную погоду, а также при ветре 12 м/с и более поправка равна нулю.
P - Атмосферное давление - приведенное к уровню моря атмосферное давление.
Po - Атмосферное давление - измеренное на уровне метеостанции атмосферное давление.
Tmin - Минимальная температура - минимум температуры воздуха на высоте 2 м над землей.
Tmax - Максимальная температура - максимум температуры воздуха на высоте 2 м над землей.
R - Количество осадков - Количество выпавших осадков, мм. При наведении курсора мыши на число - период времени, за который выпало указанное количество осадков.
S - Снежный покров - Высота снежного покрова, см. При наведении курсора мыши на число - состояние снежного покрова и степень покрытия местности в баллах.